068  
ASUS41 KBTV 071030  
RWRBTV  
VERMONT REGIONAL WEATHER ROUNDUP  
NATIONAL WEATHER SERVICE BURLINGTON VT  
600 AM EDT THU JUL 07 2022  
 
NOTE: "FAIR" INDICATES FEW OR NO CLOUDS BELOW 12,000 FEET WITH NO  
SIGNIFICANT WEATHER AND/OR S TO VISIBILITY
.  
 
* THESE REPORTS ARE NOT UNDER NWS QUALITY CONTROL AND/OR DO NOT  
REPORT WEATHER SUCH AS PRECIPITATION AND FOG.
 
 
VTZ001>019-071100-  
_____VERMONT_____  
 
 
CITY SKY/WX TMP DP RH WIND PRES REMARKS
 
BURLINGTON PTCLDY 56 53 90 E5 30.04R  
MONTPELIER FOG 51 47 86 E3 30.11R VSB<1/4  
MORRISVILLE FOG 49 48 97 CALM 30.08R VSB 1/4  
LYNDONVILLE* FOG 46 45 98 CALM 30.09R VSB 3/4  
MIDDLEBURY* FAIR 52 52 100 CALM 30.05R  
RUTLAND* CLOUDY 54 54 100 S5 30.07R  
SPRINGFIELD FOG 54 53 97 CALM 30.07R VSB<1/4  
HIGHGATE* MOCLDY 57 56 96 CALM 30.05R  
NEWPORT* FAIR 49 46 92 CALM 30.08R  
BENNINGTON MOCLDY 56 55 97 CALM 30.05R  
ISLAND POND* N/A 43 N/A N/A CALM N/A  
GALLUP MILLS* N/A 43 N/A N/A MISG N/A  
LAKE EDEN* N/A 48 N/A N/A NE1 N/A  
MT. MANSFIELD* N/A 54 N/A N/A CALM N/A  
 
_____LAKE CHAMPLAIN_____  
 
 
CITY SKY/WX TMP DP RH WIND PRES REMARKS
 
COLCHESTER RF* N/A 59 55 88 SE6 N/A  
 

 
 
NYZ007-026>031-035-052-083-087-071100-  
_____NORTHERN NEW YORK_____  
 
 
CITY SKY/WX TMP DP RH WIND PRES REMARKS
 
PLATTSBURGH PTCLDY 52 51 97 CALM 30.03R  
SARANAC LAKE FOG 49 49 100 CALM 30.07R VSB<1/4  
MASSENA PTCLDY 48 48 100 CALM 30.05S FOG  
OGDENSBURG* FAIR 52 50 93 CALM 30.03R FOG  
POTSDAM* PTCLDY 50 50 100 CALM 30.06R  
WATERTOWN CLEAR 52 51 97 CALM 30.05R  
FT DRUM CLEAR 55 54 97 SE3 30.04R  
ALBANY PTCLDY 59 56 89 CALM 30.03R  
GLENS FALLS CLOUDY 58 56 93 E5 30.04R  
 

 
NHZ002-005-011-071100-  
_____NEW HAMPSHIRE_____  
 
 
CITY SKY/WX TMP DP RH WIND PRES REMARKS
 
LEBANON FOG 56 53 90 CALM 30.06R VSB 1/4  
KEENE CLOUDY 54 54 100 CALM 30.07R  
MT WASHINGTON PTCLDY 43 21 42 W3 N/A  
PLYMOUTH FOG 51 50 97 CALM 30.07R VSB 1/4  
WHITEFIELD FOG 44 44 100 CALM 30.09R VSB 1/4  
 

 
 
_____REGIONAL QUEBEC LOCATIONS_____  
 
 
CITY SKY/WX TMP DP RH WIND PRES REMARKS
 
MONTREAL PTCLDY 57 48 72 N8 30.03R  
QUEBEC CITY PTCLDY 52 45 76 N6 30.05R  
SHERBROOKE PTCLDY 46 46 100 E3 30.05R  
 
_____REGIONAL ONTARIO LOCATIONS_____  
 
 
CITY SKY/WX TMP DP RH WIND PRES REMARKS
 
OTTAWA PTCLDY 54 52 94 NW5 30.05R  
 
______KEY______  
VSB - VISIBILITY IN MILES  
WCI - WIND CHILL INDEX  
HX - HEAT INDEX  

 
NNNN  
 
 
CLICK HERE TO GO TO PREVIOUS BULLETINS.

The Nexlab VT Page
The Nexlab NY Page Main Text Page